Starlink 30114

operational
NORAD ID: 56826 Int'l Des: 2023-079 Owner: SPXS Country: US Constellation: starlink
LEOCIRCULAR

Über Starlink 30114

Beschreibung wird geladen...

Live-Position

3D-Globus wird geladen...

Nächste Überflüge

Höhenverlauf

Altitude vs Time

uPlot chart will show altitude changes over time

Zweizeiliger Elementsatz

1 56826U 23079D 25260.19845811 -.00000187 00000-0 12133-5 0 9992
2 56826 43.0046 330.1568 0001234 268.1494 91.9207 15.02535017127104
Epoch: 17. Sept. 2025 • Age: 25 hours

Aktueller Status

Höhe 571.1 km
Geschwindigkeit 7.58 km/s
Subsatellitenpunkt -42.02°S, 163.98°E
Startdatum 4. Juni 2023
Alter 2.2 years
Typ internet

Technische Details

Klassifizierung Payload
Masse 730.00 kg
Trockenmasse 700.00 kg
Gesamtmasse 730.00 kg
Länge 0.30 m
Durchmesser 4.10 m
Spannweite 29.00 m
Form Box + pan
Hersteller SPXS
Bus-Typ Starlink V2M
Phasenstatus In Orbit
Besitzer/Staat SPXS/US

Große Konstellationen

Loading constellations...